Tracking 18980 objects as of 19-Feb-2018
HD Live streaming from Space Station
objects crossing your sky now

NIMBUS 2 DEB

Track NIMBUS 2 DEB now!
10-day predictions


NORAD ID: 26669
Int'l Code: 1966-040J
Perigee: 994.2 km
Apogee: 1,059.8 km
Inclination: 100.1 °
Period: 105.5 minutes
Semi major axis: 7397 km
RCS: 0.0129 m2 (small)
Launch date: May 15, 1966
Source: United States (US)
Launch site: AIR FORCE WESTERN TEST RANGE (AFWTR)

Note: This is SATELLITE DEBRIS
aabbcc
Your satellite tracking list
Your tracking list is empty




NASA's NSSDC Master Catalog

Two Line Element Set (TLE):
1 26669U 66040J   18048.17332663  .00000893  00000-0  11677-2 0  9991
2 26669 100.1490 227.7145 0044366 316.7295  93.9809 13.64370754872847
Source of the keplerian elements: AFSPC